Location: Godzisko
(49.9648°N, 19.4576°E)
Time: 02:25:59
(UTC+00:00)

SL-4 R/B - Pass Details

Date: 20 April 2021
Orbit: 427 x 663 km, 51.6° (Epoch: 08 May)

Event Time Altitude Azimuth Distance (km) Brightness Sun altitude
Exits shadow 02:46:41 - 286° (WNW) 2,899 5.3 -8.5°
Reaches altitude 10° 02:49:15 10° 271° (W) 2,084 4.4 -8.2°
Maximum altitude 02:52:45 20° 225° (SW) 1,504 3.7 -7.7°
Drops below altitude 10° 02:56:13 10° 178° (S) 2,047 4.7 -7.2°
Sets 02:59:00 0° 162° (SSE) 2,926 5.6 -6.8°
